Вернуться в каталог

STARLINK-3847

АктивенСвязьVLEO
NORAD 52333·PAYLOAD·🇺🇸 United States

Запущен Apr 29, 2022 с Cape Canaveral Space Force Station

Loading…

Ближайшие Пролёты (ближайшие 24 часа)

TLE

СвежийSource: CelesTrak SupGP

Эпоха: Sep 15, 2026, 01:10 UTC

1 52333C 22045C   26258.04909722 -.00021790  00000+0 -70084-3 0  2585
2 52333  53.1590  65.3183 0001237  71.4903 256.2244 15.31707486    12

Отслеживайте STARLINK-3847 в реальном времени с AllMySat

Download on the App Store